Temperature
19 19 18 18 18 18 18 17 17 17 17 17 16 16 16 15 15 15 15 15 15 15 15 14 14 14 14 14 14 14 14 15 15 15 15 15 15 15 15 15 15 15 15
19 19 18 18 18 18 17 17 17 17 17 17 16 16 16 16 15 15 15 15 15 15 15 14 14 14 14 14 14 14 14 14 15 15 16 16 16 15 15 15 15 15 15
20 19 19 18 18 18 18 17 17 17 17 17 16 16 16 16 15 15 15 15 15 15 15 14 14 14 14 14 14 14 14 14 14 14 15 16 16 15 15 15 15 15 15
19 19 19 18 18 18 18 17 17 17 17 17 17 16 16 16 16 15 15 15 15 15 15 14 14 14 14 14 14 14 14 14 14 14 14 15 14 15 15 15 15 15 15
19 19 18 18 18 18 18 17 17 17 17 17 17 17 16 16 16 16 15 15 15 15 15 15 14 14 14 14 14 14 14 14 14 14 14 14 14 15 15 15 15 15 15
19 19 18 18 18 18 18 17 17 17 17 17 17 17 16 16 16 16 15 15 15 15 15 15 14 14 14 14 14 14 14 14 14 14 14 14 14 14 15 15 15 15 15
19 18 18 18 18 18 18 17 17 17 17 17 17 17 16 16 16 16 16 15 15 15 15 15 15 14 14 14 14 14 14 14 14 14 14 14 14 14 14 14 15 15 15
19 19 18 18 18 18 18 17 17 17 17 17 17 17 16 16 16 16 16 15 15 15 15 15 15 15 14 14 14 14 14 14 14 14 14 14 14 14 14 14 14 15 15
19 18 18 18 18 18 17 17 17 17 17 17 17 16 16 16 16 16 16 15 15 15 15 15 15 15 14 14 14 14 14 14 14 14 14 13 13 13 13 14 14 14 15
19 18 18 18 18 17 17 17 17 17 17 17 17 16 16 16 16 16 15 15 15 15 15 15 15 14 14 14 14 14 14 14 14 14 14 13 13 14 14 13 14 14 14
19 18 18 18 18 17 17 17 17 17 17 16 16 16 16 16 16 16 16 15 15 15 15 15 14 14 14 14 14 14 14 13 13 13 13 13 13 13 13 13 13 13 13
18 18 18 17 17 17 17 17 17 17 17 16 16 16 16 16 16 15 15 15 15 15 15 14 14 14 14 14 14 14 14 14 13 13 13 13 13 13 13 13 13 13 13
18 18 17 17 17 17 17 17 17 17 16 16 16 16 16 16 15 15 15 15 15 14 14 14 14 14 14 14 13 13 13 13 13 13 13 13 13 13 13 13 13 13 13
18 17 17 17 17 17 17 17 17 17 16 16 16 16 16 16 15 15 15 15 14 14 14 14 14 13 13 13 13 13 13 13 13 13 13 13 13 12 12 12 12 12 12
18 17 17 17 17 17 17 17 17 17 16 16 16 16 16 15 15 15 15 14 14 14 14 14 13 13 13 13 13 13 12 12 12 12 12 12 12 12 12 12 12 12 12
18 17 17 17 17 17 17 17 17 16 16 16 16 16 15 15 15 15 14 14 14 14 13 13 13 13 13 13 13 12 12 12 12 12 12 12 12 12 12 12 12 12 12
18 18 17 17 17 17 17 17 17 16 16 16 16 15 15 15 14 14 14 14 14 13 13 13 13 12 12 12 12 12 12 11 11 11 11 11 11 11 11 11 11 11 11
18 18 17 17 17 17 17 17 16 16 16 16 15 15 15 15 14 14 14 13 13 13 13 12 12 12 12 12 12 12 11 11 11 11 11 11 11 11 11 11 11 11 11
18 18 18 17 17 17 17 16 16 16 16 15 15 15 15 14 14 14 13 13 13 13 12 12 12 12 12 12 12 11 11 11 11 10 10 10 10 11 11 10 10 10 10
18 18 17 17 17 17 17 16 16 16 15 15 15 15 14 14 14 14 13 13 13 12 12 12 11 11 11 11 11 11 10 10 10 10 10 10 10 10 10 10 10 10 10
18 18 17 17 17 17 16 16 16 15 15 15 15 14 14 14 14 13 13 13 12 12 12 11 11 11 11 11 11 11 10 10 10 10 10 10 10 10 10 10 9 9 9
18 17 17 17 17 16 16 16 16 16 15 15 15 14 14 14 13 13 13 12 12 11 11 11 11 11 10 10 10 10 10 10 9 9 9 9 10 10 9 9 9 9 9
17 17 17 16 16 16 16 16 16 15 15 14 14 14 13 13 13 12 12 12 11 11 11 10 10 10 10 10 10 10 10 10 9 9 9 9 9 9 9 9 9 9 8
17 17 16 16 16 16 15 15 15 15 14 14 14 13 13 12 12 12 12 11 11 11 10 10 10 10 10 9 9 9 9 9 9 9 9 9 9 9 8 8 8 8 8
16 16 16 16 16 15 15 14 14 14 14 13 13 13 12 12 12 11 11 11 11 11 10 10 10 9 9 9 9 9 9 8 8 8 8 8 8 8 8 8 8 8 7
16 16 16 15 15 15 15 14 14 13 13 13 12 12 12 11 11 11 11 11 10 10 10 10 10 9 9 9 9 9 9 9 8 8 7 7 7 7 7 7 7 7 7
Wind_Speed
8 8 9 9 9 8 8 8 8 8 6 4 3 3 3 2 3 3 4 4 4 5 5 4 5 4 4 4 4 3 3 3 2 1 1 2 2 3 3 3 3 3 3
9 9 9 10 9 9 8 8 8 8 6 4 3 2 2 2 2 2 3 4 4 4 4 5 4 4 3 4 4 4 3 3 3 2 1 1 2 3 3 3 3 3 3
10 11 10 10 10 9 8 7 8 7 6 5 4 4 3 2 2 2 2 3 3 4 4 5 4 4 4 4 4 4 4 3 3 4 3 2 2 2 2 3 3 3 3
10 11 11 10 10 10 9 9 8 8 7 6 5 4 3 2 2 1 2 2 2 3 4 4 4 4 4 4 4 4 3 3 3 3 3 4 3 2 1 2 3 4 4
12 12 11 11 10 10 9 8 8 7 6 6 5 4 3 2 2 2 2 2 2 3 3 4 4 4 4 4 4 4 4 3 3 3 3 3 2 2 2 2 3 3 4
12 12 11 10 10 9 8 8 8 7 6 5 5 4 3 3 2 2 2 1 2 2 3 3 3 3 3 4 4 3 4 4 4 3 3 3 3 3 3 2 3 3 3
13 13 12 12 11 10 10 9 9 8 7 6 5 4 3 3 2 2 2 1 2 2 2 2 2 3 3 3 3 3 3 3 3 3 3 3 3 3 3 3 3 3 2
13 13 13 12 12 11 10 10 9 8 7 6 5 3 3 2 2 2 1 1 1 2 2 2 2 3 3 3 3 3 3 3 3 4 3 3 3 3 3 3 3 3 2
13 13 13 12 12 11 11 10 10 8 7 6 5 4 3 3 2 2 1 1 1 2 2 2 2 2 2 3 2 2 3 3 3 3 3 3 3 3 3 2 3 3 3
13 13 13 12 12 11 10 9 9 8 7 6 5 4 3 3 2 2 2 1 2 2 2 2 2 2 2 2 3 2 3 3 3 3 3 3 3 3 2 2 2 2 3
14 14 13 12 11 10 10 10 9 8 7 6 5 5 4 3 3 3 3 2 3 3 3 3 3 3 3 3 3 3 3 3 3 3 3 3 3 2 2 2 2 2 2
13 13 13 13 12 11 10 10 9 8 7 6 6 5 5 4 4 4 3 3 4 3 3 3 3 3 3 3 3 3 3 3 3 3 3 3 3 3 3 3 3 3 3
13 13 13 12 12 11 10 10 9 8 7 7 6 6 6 5 5 4 4 4 4 4 4 4 4 3 3 3 3 3 3 4 4 4 4 4 4 4 4 3 3 3 3
14 14 13 12 11 11 10 10 9 8 8 8 7 6 6 6 5 5 5 4 4 4 4 4 4 3 3 3 3 3 4 4 4 4 4 5 5 5 5 4 4 4 4
15 15 14 13 12 11 11 10 10 9 9 8 8 7 6 6 6 6 5 5 4 4 4 4 4 4 3 4 4 3 3 4 4 4 4 5 6 8 6 5 5 5 4
15 15 14 14 13 13 12 11 10 10 9 9 8 7 7 6 6 6 6 5 4 4 4 4 3 3 3 6 6 5 2 3 3 4 4 3 3 3 2 3 5 6 5
15 15 15 14 13 13 13 12 11 10 10 9 8 8 7 7 6 6 6 5 5 4 3 3 3 3 5 5 4 5 3 3 3 4 4 4 4 5 5 3 4 3 2
15 15 14 14 13 13 13 12 11 11 10 9 9 8 8 7 7 6 5 5 4 4 3 3 2 3 4 4 3 4 3 2 3 3 4 4 5 6 8 7 6 6 5
14 13 14 14 13 13 13 13 12 11 10 10 9 9 8 8 7 6 6 5 4 4 3 2 2 2 2 3 3 5 2 2 3 3 4 5 5 6 8 8 7 7 6
11 12 13 13 13 13 13 13 12 11 10 9 9 8 8 8 7 7 6 5 4 3 3 2 2 1 0 3 2 5 3 3 3 3 3 2 5 7 8 8 7 8 8
12 13 13 13 13 14 14 13 12 11 10 9 8 8 8 7 7 6 5 5 4 4 3 3 2 1 1 1 1 4 4 4 5 4 4 4 3 7 8 9 8 8 10
13 14 13 12 11 13 13 13 11 10 9 9 9 8 8 7 6 6 5 5 4 4 4 3 2 2 2 1 1 2 4 7 6 5 5 5 5 8 9 8 7 9 10
12 12 13 12 11 12 12 12 11 10 10 10 9 8 8 7 6 6 6 5 4 4 3 3 3 2 2 2 3 4 5 6 6 6 6 8 9 9 8 7 9 9 8
12 12 13 12 11 11 11 10 11 11 11 10 9 8 8 7 6 5 5 4 4 4 3 3 3 3 3 3 2 3 4 4 6 6 6 8 9 9 8 8 7 7 6
11 11 12 11 11 11 10 10 10 11 10 10 8 8 7 6 5 5 3 4 3 2 3 3 3 3 4 3 5 6 5 6 6 8 7 7 7 7 6 6 7 7 7
11 11 11 11 11 11 10 10 10 11 10 9 8 6 6 5 5 5 4 2 2 2 2 2 4 3 3 3 4 6 7 8 8 8 7 8 8 8 8 8 8 8 8
Wind_Direction
170 165 164 162 161 160 157 151 154 152 149 143 140 129 116 106 86 68 58 47 38 36 36 27 34 25 35 28 27 32 45 34 4 12 80 98 75 50 41 22 17 32 28
171 165 165 165 166 161 160 156 156 155 153 144 135 126 116 104 82 75 64 47 42 36 33 31 35 39 39 35 33 27 13 29 9 352 339 78 117 65 51 39 33 25 29
179 172 169 168 167 165 165 162 160 159 158 151 139 136 132 142 124 100 72 47 39 42 37 34 33 31 33 38 25 23 20 20 28 22 0 360 32 20 61 45 43 37 26
179 174 172 171 170 169 168 166 165 163 160 159 159 159 156 130 98 87 83 82 55 49 39 35 35 38 37 39 29 30 18 10 24 37 26 23 21 349 32 63 48 40 34
179 176 175 172 169 166 167 167 166 163 163 163 159 169 152 124 115 108 102 96 80 64 52 37 38 39 38 36 31 25 18 23 17 20 21 29 26 356 1 28 19 35 39
177 174 171 168 162 161 164 166 165 160 161 165 165 165 150 138 128 125 111 113 106 86 71 47 45 41 35 33 29 26 32 25 27 16 18 9 9 8 9 1 7 17 27
174 172 170 170 167 167 168 169 167 163 167 169 165 160 155 156 146 134 124 113 104 93 75 61 50 44 37 35 30 34 30 35 27 18 17 15 9 4 359 357 1 354 10
174 172 172 171 170 171 171 172 170 166 168 172 165 156 150 152 128 130 116 111 83 74 77 73 60 52 43 38 35 27 35 30 34 30 23 15 18 8 3 355 341 342 6
174 173 171 171 170 171 172 174 172 169 170 168 163 163 158 152 138 136 126 105 92 87 86 81 71 63 49 34 28 31 34 29 24 21 23 16 17 7 1 343 326 329 332
173 171 171 172 170 168 168 169 171 167 164 161 159 153 155 149 138 133 125 113 100 99 101 84 73 67 58 47 39 39 33 35 36 15 7 4 357 360 348 333 328 318 314
174 172 170 169 166 164 165 168 170 167 164 162 158 155 151 145 140 124 114 114 107 110 102 84 73 65 50 47 52 43 42 35 32 23 18 10 7 355 354 347 338 330 319
172 170 167 165 165 166 168 169 169 167 166 163 160 154 147 145 138 123 118 118 110 104 99 89 77 68 54 47 46 43 37 36 31 24 20 17 19 10 6 353 345 343 329
169 168 165 167 166 167 168 168 168 167 163 161 159 154 148 140 132 124 117 117 114 109 100 88 78 69 58 54 49 45 39 37 33 29 27 23 18 12 14 355 351 344 337
172 171 169 168 167 166 166 166 165 163 160 157 156 151 143 139 135 128 124 118 113 107 99 89 78 67 60 51 47 45 42 42 39 34 31 26 19 9 2 354 351 341 333
176 174 172 169 166 165 164 162 161 160 159 157 154 147 142 139 135 130 128 118 110 106 99 92 81 70 61 47 31 40 42 42 39 35 35 37 34 20 5 355 347 342 331
178 177 174 170 170 168 165 163 163 162 161 159 152 144 144 141 140 137 132 123 119 112 104 98 87 77 64 50 17 355 32 32 30 24 20 27 32 18 6 354 339 335 333
179 178 177 175 174 170 166 165 163 160 163 159 153 152 150 146 145 142 137 135 134 124 116 106 96 88 76 59 27 346 349 11 8 2 4 4 4 344 345 319 252 268 268
180 178 176 172 171 167 164 161 159 162 163 160 157 157 156 153 149 146 145 149 145 138 134 121 112 96 79 59 22 322 319 352 352 347 344 342 349 2 341 329 328 327 324
179 175 172 168 166 164 163 161 163 164 164 164 163 162 161 157 155 155 156 154 152 151 152 144 138 132 109 76 8 312 323 325 331 333 337 336 336 6 329 316 318 317 318
170 168 166 164 163 163 162 164 165 166 169 169 168 166 165 163 164 165 163 158 161 165 164 157 170 170 124 84 11 313 307 313 313 313 309 350 332 339 323 311 311 311 317
164 163 162 164 165 163 166 170 171 173 169 166 166 168 169 169 167 167 169 169 170 173 180 181 198 215 259 124 51 318 308 313 309 307 305 320 331 313 310 301 303 315 310
161 162 161 160 161 165 169 171 172 167 160 161 164 166 166 165 166 167 174 179 179 186 196 210 220 238 239 275 263 290 299 311 303 302 306 321 326 303 295 295 306 303 295
159 161 158 157 160 167 172 171 166 160 160 161 164 165 165 166 170 173 178 184 190 204 215 226 242 251 261 234 216 249 272 280 288 298 318 313 302 292 280 273 279 281 285
160 159 158 160 163 169 173 170 161 161 163 165 165 166 168 169 171 176 185 191 198 210 222 234 246 256 259 275 293 290 283 267 278 292 287 270 272 270 277 280 275 278 286
160 161 162 165 166 168 170 167 165 167 169 168 168 169 170 172 176 178 189 200 202 220 236 243 252 263 270 315 333 307 302 307 307 305 295 293 296 294 290 289 288 285 283
157 159 161 164 167 167 167 166 169 173 174 173 172 172 172 174 180 180 177 154 209 171 215 265 275 265 284 305 296 294 294 297 296 291 288 291 293 294 294 294 292 289 287
Height
1539 1541 1543 1545 1548 1550 1551 1553 1554 1555 1556 1558 1558 1559 1559 1559 1559 1558 1558 1557 1556 1555 1554 1553 1552 1550 1550 1549 1549 1548 1547 1546 1546 1546 1545 1544 1544 1544 1543 1543 1543 1542 1541
1537 1540 1542 1544 1547 1549 1551 1552 1554 1555 1557 1557 1559 1559 1559 1560 1559 1559 1558 1558 1557 1556 1555 1554 1553 1551 1550 1549 1549 1548 1547 1547 1546 1546 1546 1545 1546 1544 1544 1543 1542 1542 1542
1535 1538 1541 1543 1546 1548 1550 1552 1554 1555 1556 1557 1559 1559 1560 1560 1560 1560 1559 1558 1557 1556 1555 1554 1554 1552 1552 1551 1549 1549 1548 1548 1547 1546 1547 1546 1545 1545 1545 1544 1543 1542 1542
1533 1536 1539 1542 1545 1547 1549 1552 1553 1555 1556 1557 1559 1560 1560 1561 1561 1561 1560 1559 1558 1557 1556 1555 1554 1553 1552 1551 1551 1550 1549 1548 1548 1547 1546 1547 1546 1546 1546 1546 1545 1543 1543
1531 1534 1538 1541 1544 1546 1548 1551 1553 1554 1556 1557 1558 1559 1560 1561 1561 1560 1560 1560 1559 1558 1557 1556 1555 1554 1553 1552 1551 1550 1549 1549 1548 1548 1548 1547 1546 1546 1546 1546 1546 1545 1544
1529 1533 1536 1539 1542 1545 1547 1549 1551 1553 1555 1556 1558 1559 1560 1560 1560 1560 1560 1560 1560 1559 1558 1557 1556 1555 1554 1553 1552 1551 1550 1550 1549 1549 1548 1548 1547 1547 1547 1546 1546 1545 1545
1527 1531 1534 1537 1540 1543 1546 1548 1550 1552 1554 1556 1558 1559 1559 1560 1560 1560 1560 1560 1560 1560 1559 1558 1557 1556 1555 1554 1553 1552 1551 1551 1550 1549 1549 1548 1548 1547 1547 1547 1546 1545 1545
1525 1529 1532 1535 1538 1541 1544 1547 1549 1551 1553 1555 1557 1558 1559 1559 1560 1560 1560 1560 1560 1560 1559 1558 1558 1557 1556 1555 1554 1553 1552 1552 1551 1550 1549 1548 1548 1548 1547 1547 1546 1546 1545
1523 1527 1530 1534 1537 1540 1543 1545 1548 1550 1552 1554 1556 1557 1558 1558 1559 1559 1560 1560 1560 1559 1559 1559 1558 1557 1556 1555 1555 1554 1553 1552 1552 1551 1550 1549 1549 1548 1547 1547 1546 1547 1545
1521 1525 1528 1532 1535 1538 1541 1544 1547 1549 1551 1553 1555 1556 1557 1557 1558 1559 1559 1559 1559 1559 1559 1559 1558 1558 1557 1556 1555 1554 1553 1553 1552 1551 1550 1549 1549 1548 1547 1547 1546 1546 1546
1518 1522 1526 1530 1534 1537 1540 1543 1546 1548 1550 1552 1553 1555 1556 1556 1557 1557 1558 1558 1558 1558 1559 1558 1558 1558 1557 1556 1555 1555 1554 1553 1553 1552 1551 1550 1549 1548 1547 1546 1546 1545 1545
1517 1521 1525 1528 1532 1535 1539 1541 1544 1547 1549 1550 1552 1553 1555 1555 1556 1557 1557 1558 1558 1558 1558 1558 1558 1557 1557 1556 1555 1555 1554 1553 1553 1552 1551 1550 1549 1548 1547 1546 1545 1544 1544
1515 1519 1523 1526 1530 1533 1537 1540 1543 1545 1547 1549 1551 1552 1554 1555 1555 1556 1556 1557 1557 1558 1558 1558 1557 1557 1556 1556 1555 1555 1554 1553 1552 1552 1551 1550 1549 1548 1547 1546 1545 1544 1543
1514 1517 1520 1524 1528 1531 1535 1538 1541 1544 1546 1548 1550 1551 1553 1554 1554 1555 1556 1556 1557 1557 1557 1557 1557 1557 1556 1556 1555 1554 1554 1553 1552 1551 1550 1549 1548 1547 1546 1545 1544 1543 1542
1511 1515 1518 1522 1525 1529 1533 1536 1539 1542 1544 1546 1548 1550 1551 1552 1553 1554 1555 1555 1556 1556 1557 1557 1556 1556 1555 1555 1554 1554 1553 1553 1552 1551 1550 1548 1547 1546 1544 1544 1543 1542 1541
1508 1512 1516 1520 1523 1527 1531 1534 1537 1540 1543 1545 1547 1548 1550 1551 1552 1553 1554 1555 1555 1556 1556 1556 1555 1555 1555 1554 1553 1553 1553 1552 1551 1550 1549 1548 1546 1545 1543 1542 1541 1540 1539
1505 1509 1513 1517 1521 1525 1529 1532 1536 1538 1541 1544 1545 1547 1549 1550 1551 1552 1553 1553 1554 1554 1555 1555 1555 1554 1554 1553 1552 1552 1551 1551 1550 1549 1548 1547 1545 1544 1543 1541 1539 1538 1537
1503 1507 1511 1515 1519 1523 1527 1531 1534 1537 1539 1542 1544 1545 1547 1548 1550 1551 1552 1552 1553 1553 1554 1554 1554 1553 1553 1552 1551 1551 1551 1550 1549 1548 1547 1546 1544 1542 1541 1540 1539 1537 1535
1500 1504 1508 1512 1517 1521 1525 1528 1532 1535 1537 1540 1542 1544 1545 1547 1548 1549 1550 1551 1552 1552 1553 1553 1553 1552 1552 1551 1550 1549 1549 1549 1548 1546 1545 1543 1542 1540 1538 1537 1536 1535 1533
1499 1503 1507 1511 1515 1519 1522 1526 1530 1533 1535 1537 1540 1542 1544 1545 1546 1548 1549 1550 1551 1551 1551 1551 1551 1551 1551 1550 1549 1548 1548 1547 1546 1545 1543 1541 1539 1538 1536 1535 1534 1532 1530
1496 1500 1505 1508 1512 1516 1520 1524 1527 1530 1533 1535 1538 1540 1541 1543 1545 1546 1547 1548 1549 1549 1550 1550 1550 1549 1549 1548 1547 1546 1546 1545 1544 1542 1541 1539 1536 1534 1533 1531 1530 1528 1526
1494 1498 1502 1506 1510 1514 1518 1521 1525 1528 1530 1533 1535 1537 1539 1541 1543 1544 1545 1546 1547 1548 1548 1548 1548 1548 1547 1546 1545 1544 1543 1542 1540 1539 1537 1535 1533 1531 1529 1527 1526 1524 1522
1492 1496 1500 1504 1508 1512 1516 1519 1522 1525 1527 1530 1533 1535 1537 1539 1540 1542 1543 1544 1545 1545 1546 1546 1546 1545 1544 1543 1542 1541 1540 1538 1537 1535 1533 1531 1528 1526 1525 1523 1521 1520 1518
1491 1494 1498 1502 1506 1509 1513 1517 1520 1523 1525 1528 1530 1533 1535 1536 1538 1539 1540 1541 1542 1542 1543 1543 1543 1542 1542 1541 1539 1538 1537 1535 1533 1531 1529 1526 1524 1522 1520 1518 1517 1516 1514
1489 1493 1496 1500 1504 1507 1511 1514 1517 1520 1523 1526 1528 1530 1532 1533 1535 1536 1537 1538 1539 1539 1539 1540 1540 1539 1538 1537 1536 1535 1533 1532 1530 1527 1525 1523 1521 1518 1516 1514 1513 1511 1509
1488 1491 1495 1499 1502 1505 1508 1511 1514 1518 1521 1523 1525 1527 1529 1530 1532 1533 1534 1534 1535 1536 1536 1536 1536 1535 1535 1533 1532 1531 1529 1528 1526 1523 1521 1519 1517 1514 1512 1510 1508 1506 1504